Location: Montreal
(45.5087°N, 73.5540°W)
Time: 05:12:19
(UTC-04:00)

ISS - Visible Passes

Search period start: 26 September 2021 00:00
Search period end: 06 October 2021 00:00
Orbit: 417 x 422 km, 51.6° (Epoch: 26 September)

Date Brightness Start Highest point End Pass type
(mag) Time Alt. Az. Time Alt. Az. Time Alt. Az.
26 Sep -2.1 19:40:39 10° WNW 19:43:36 27° N 19:46:12 12° ENE visible
26 Sep -1.3 21:17:41 10° NW 21:19:10 22° NW 21:19:10 22° NW visible
27 Sep -2.7 20:30:24 10° NW 20:33:32 35° NNE 20:33:36 35° NNE visible
28 Sep -2.4 19:43:03 10° NW 19:46:06 30° N 19:48:04 17° ENE visible
28 Sep -1.1 21:19:51 10° WNW 21:21:02 20° WNW 21:21:02 20° WNW visible
29 Sep -3.3 20:32:33 10° WNW 20:35:32 55° N 20:35:32 55° N visible
30 Sep -3.1 19:45:16 10° NW 19:48:31 44° NNE 19:50:03 25° ENE visible
30 Sep -0.8 21:22:10 10° WNW 21:23:02 16° W 21:23:02 16° W visible
01 Oct -2.8 18:57:57 10° NW 19:01:06 35° NNE 19:04:15 10° E visible
01 Oct -3.1 20:34:45 10° WNW 20:37:37 53° WSW 20:37:37 53° WSW visible
02 Oct -3.8 19:47:25 10° WNW 19:50:47 88° NNE 19:52:16 31° ESE visible
02 Oct -0.4 21:25:10 10° W 21:25:15 10° W 21:25:15 10° W visible
03 Oct -3.6 19:00:07 10° WNW 19:03:27 61° NNE 19:06:48 10° ESE visible
03 Oct -1.8 20:37:18 10° W 20:39:59 24° SW 20:39:59 24° SW visible
04 Oct -2.5 19:49:44 10° WNW 19:52:53 37° SW 19:54:50 19° SSE visible
05 Oct -3.2 19:02:19 10° WNW 19:05:38 59° SSW 19:08:57 10° SE visible
